Powrót do katalogu

STARLINK-11707

AktywnyŁącznośćVLEO
NORAD 64328·PAYLOAD·🇺🇸 United States

Wystrzelony Jun 10, 2025 z Cape Canaveral Space Force Station

Loading…

Następne Przeloty (najbliższe 24 godziny)

TLE

ŚwieżeSource: CelesTrak SupGP

Epoka: Sep 14, 2026, 21:07 UTC

1 64328C 25124M   26257.88034722 -.00078626  00000+0 -61040-3 0  2574
2 64328  43.0000 328.7496 0001574 259.9378 332.8023 15.70888648    18

Śledź STARLINK-11707 w czasie rzeczywistym z AllMySat

Download on the App Store